[[{"header":{"parameterUnit":"m.s-1","parameterCategory":1,"la1":30.2991,"la2":30.254,"lo1":-89.0895,"lo2":-89.0444,"dy":0.0017,"dx":0.0017,"nx":28,"ny":28,"refTime":"2024-05-11T03:00:00:Z","depth":0,"parameterNumber":2,"parameterNumberName":"U-component_of_WINDS"},"data":[0,0,0,0,0,0,0,0,0,0,0,0,0,0,0,0,0,0,0,0,0,0,0,0,0,0,0,0,0,0,0,0,0,0,0,0,0,0,0,0,0,0,0,0,0,0,0,0,0,0,0,0,0,0,0,0,0,0,-2.8847,-2.8847,0,-2.8836,-2.8836,-2.8835,-2.8742,-2.874,-2.8738,-2.8736,-2.8724,-2.8725,-2.8727,0,0,0,0,0,0,0,0,0,0,0,0,0,-2.8788,-2.879,-2.8847,-2.8847,-2.8847,-2.8836,-2.8836,-2.8835,-2.8743,-2.874,-2.8737,-2.8735,-2.8723,-2.8725,-2.8727,0,0,0,0,0,0,0,0,0,0,0,0,0,-2.8799,-2.879,-2.8847,-2.8799,-2.8795,-2.8836,-2.8836,-2.8835,-2.8743,-2.874,-2.8737,-2.8733,-2.8722,-2.8725,-2.8728,-2.8813,0,0,-2.8736,-2.8737,0,0,0,0,0,0,0,0,-2.8799,-2.8801,-2.8806,-2.8803,-2.8798,-2.8787,-2.881,-2.8828,-2.8744,-2.8763,-2.8736,-2.8732,-2.8747,-2.8748,-2.8753,-2.8813,-2.8812,-2.8736,-2.8738,-2.8739,-2.874,0,0,0,0,0,0,0,-2.8798,-2.8801,-2.8842,-2.8807,-2.8801,-2.8778,-2.8776,-2.8813,-2.8775,-2.8761,-2.8754,-2.8754,-2.8744,-2.8751,-2.8752,-2.8812,-2.8736,-2.8739,-2.874,-2.8741,-2.8941,-2.8944,0,0,0,0,0,0,-2.8804,-2.8801,-2.8843,-2.8842,-2.879,-2.8782,-2.878,-2.8794,-2.8774,-2.8768,-2.8757,-2.875,-2.8748,-2.8749,-2.8752,-2.8849,-2.8739,-2.8742,-2.8743,-2.8937,-2.8942,-2.8946,0,0,0,0,0,0,-2.8803,-2.8809,-2.8843,-2.882,-2.8823,-2.8787,-2.8804,-2.8796,-2.8802,-2.8771,-2.8764,-2.8771,-2.8745,-2.8748,-2.8799,-2.8848,-2.8743,-2.8745,-2.8933,-2.8939,-2.8944,-2.9046,0,0,0,0,0,0,-2.8802,-2.8809,-2.8841,-2.8821,-2.8824,-2.8891,-2.8807,-2.8798,-2.8807,-2.8797,-2.8782,-2.8776,-2.8743,-2.8795,-2.8801,-2.8849,-2.8747,-2.8928,-2.8936,-2.8942,-2.9038,-2.9055,-2.9069,0,0,0,0,0,-2.88,-2.887,-2.8843,-2.8848,-2.8863,-2.8894,-2.8895,-2.8855,-2.8811,-2.8843,-2.8823,-2.8777,-2.8842,-2.8801,-2.8807,-2.8857,-2.8925,-2.8934,-2.8942,-2.9032,-2.9051,-2.9068,0,0,0,0,0,0,-2.8895,-2.8866,-2.8836,-2.8902,-2.8901,-2.8878,-2.8916,-2.8878,-2.8889,-2.888,-2.883,-2.8828,-2.8886,-2.8877,-2.8832,-2.8939,-2.8876,-2.8885,-2.8942,-2.896,-2.8975,-2.8975,-2.875,0,0,0,0,0,-2.8924,-2.8951,-2.8925,-2.8985,-2.8987,-2.8952,-2.8964,-2.8934,-2.8931,-2.8929,-2.8913,-2.8912,-2.8932,-2.8946,-2.8963,-2.9038,-2.9033,-2.9075,-2.9091,-2.9103,-2.9111,-2.9149,-2.9167,-2.8973,-2.8973,-2.8973,0,0,-2.8983,-2.8971,-2.8991,-2.9004,-2.9,-2.9029,-2.8952,-2.8986,-2.9006,-2.8934,-2.8981,-2.897,-2.8965,-2.9028,-2.9055,-2.9022,-2.9165,-2.9114,-2.9124,-2.9125,-2.9159,-2.9178,-2.9194,-2.8979,-2.8977,-2.8977,0,0,-2.9105,-2.91,-2.9149,-2.9147,-2.9142,-2.9119,-2.9131,-2.9114,-2.9104,-2.9151,-2.9097,-2.9122,-2.9158,-2.9156,-2.916,-2.9285,-2.9241,-2.9292,-2.937,-2.9407,-2.9422,-2.9436,-2.9478,-2.9494,-2.9301,-2.9301,-2.9301,0,-2.9179,-2.922,-2.9179,-2.9216,-2.9223,-2.9161,-2.9211,-2.9211,-2.9212,-2.9218,-2.9182,-2.9226,-2.9219,-2.928,-2.931,-2.9317,-2.9328,-2.9291,-2.9424,-2.9437,-2.9448,-2.9488,-2.9504,-2.9307,-2.9306,-2.9306,-2.9305,0,-2.9311,-2.9341,-2.9381,-2.9384,-2.9396,-2.9439,-2.9404,-2.9422,-2.9392,-2.9373,-2.9421,-2.9411,-2.9424,-2.9437,-2.9408,-2.9495,-2.9474,-2.9432,-2.9367,-2.9473,-2.951,-2.9525,-2.9316,-2.9314,-2.9312,-2.931,0,0,-2.9488,-2.947,-2.9485,-2.9485,-2.9476,-2.9498,-2.954,-2.9553,-2.9568,-2.9573,-2.9604,-2.9638,-2.9599,-2.9604,-2.9574,-2.9608,-2.9705,-2.9561,-2.956,-2.9586,-2.9798,-2.9827,-2.9846,-2.9678,-2.9681,-2.9683,-2.9797,0,-2.9603,-2.9671,-2.9637,-2.9709,-2.9736,-2.9679,-2.9714,-2.9713,-2.9697,-2.9718,-2.97,-2.9723,-2.9672,-2.9674,-2.9705,-2.9687,-2.9746,-2.9679,-2.9706,-2.9707,-2.9705,-2.9865,-2.9896,-3.0004,-2.9812,-2.9814,-2.9816,0,-2.9745,-2.9756,-2.9831,-2.9818,-2.9827,-2.986,-2.987,-2.9891,-2.9888,-2.9875,-2.9882,-2.9845,-2.9884,-2.9823,-2.9875,-2.983,-2.984,-2.9833,-2.9837,-2.9834,-2.9765,-2.9864,-3.0037,-3.0053,-2.9838,-2.9837,-2.9835,0,-2.9864,-2.9897,-2.9946,-2.9949,-2.9935,-2.9959,-2.9955,-2.9949,-2.996,-2.997,-2.9976,-2.999,-2.9997,-3.0009,-2.9977,-2.9936,-3.0034,-2.997,-3.0022,-3.0023,-3.0042,-3.004,-3.0216,-3.0054,-3.0054,-3.0054,-3.0054,0,-2.9994,-3.0042,-2.9999,-3.0029,-3.0081,-3.0042,-3.0094,-3.0084,-3.008,-3.0106,-3.006,-3.0085,-3.0043,-3.0065,-3.0041,-3.0088,-3.0092,-3.0081,-3.0073,-3.0083,-3.0084,-3.0086,-3.0076,-3.0058,-3.0057,-3.0056,-3.0056,0,-3.0133,-3.0107,-3.0156,-3.0141,-3.0138,-3.0176,-3.0163,-3.0189,-3.0172,-3.0206,-3.0212,-3.0184,-3.0208,-3.0179,-3.02,-3.0183,-3.0246,-3.0229,-3.0246,-3.024,-3.0293,-3.0287,-3.0472,-3.0494,-3.0323,-3.0324,-3.0326,0,-3.0216,-3.0251,-3.024,-3.0254,-3.0253,-3.0277,-3.0288,-3.0252,-3.0266,-3.0267,-3.0294,-3.0314,-3.0327,-3.0368,-3.0349,-3.0365,-3.0346,-3.041,-3.0347,-3.0356,-3.0343,-3.034,-3.0342,-3.0421,-3.0423,-3.0425,-3.0426,0,-3.0364,-3.035,-3.0368,-3.0382,-3.0396,-3.0406,-3.0411,-3.0426,-3.0389,-3.0406,-3.043,-3.0441,-3.0463,-3.0483,-3.0494,-3.0489,-3.0451,-3.0447,-3.0459,-3.0467,-3.0475,-3.0469,-3.0277,-3.0442,-3.044,-3.0439,-3.0438,-3.0437,-3.0475,-3.0503,-3.05,-3.0521,-3.0523,-3.0529,-3.0554,-3.054,-3.056,-3.0574,-3.0553,-3.0583,-3.0581,-3.0592,-3.0592,-3.0614,-3.0586,-3.0605,-3.0609,-3.0613,-3.062,-3.0475,-3.0617,-3.0616,-3.0616,-3.0615,-3.0615,0,-3.0618,-3.0614,-3.0634,-3.0644,-3.0661,-3.0627,-3.0632,-3.0648,-3.0675,-3.0677,-3.0692,-3.0719,-3.0739,-3.0724,-3.074,-3.0761,-3.0744,-3.0766,-3.0762,-3.0761,-3.0645,-3.0631,-3.0779,-3.0779,-3.0779,-3.0779,-3.0779,-3.0779,-3.0694,-3.074,-3.0726,-3.0773,-3.0768,-3.0797,-3.0802,-3.0808,-3.0809,-3.0843,-3.0859,-3.0849,-3.0844,-3.086,-3.0877,-3.0872,-3.0878,-3.0906,-3.0895,-3.0786,-3.0769,-3.0754,-3.074,-3.0909,-3.0909,-3.1008,-3.1009,-3.101]},{"header":{"parameterUnit":"m.s-1","parameterCategory":1,"la1":30.2991,"la2":30.254,"lo1":-89.0895,"lo2":-89.0444,"dy":0.0017,"dx":0.0017,"nx":28,"ny":28,"refTime":"2024-05-11T03:00:00:Z","depth":0,"parameterNumber":3,"parameterNumberName":"V-component_of_WINDS"},"data":[0,0,0,0,0,0,0,0,0,0,0,0,0,0,0,0,0,0,0,0,0,0,0,0,0,0,0,0,0,0,0,0,0,0,0,0,0,0,0,0,0,0,0,0,0,0,0,0,0,0,0,0,0,0,0,0,0,0,-2.38,-2.3802,0,-2.3956,-2.3958,-2.396,-2.4014,-2.4014,-2.4013,-2.4012,-2.4168,-2.4172,-2.4177,0,0,0,0,0,0,0,0,0,0,0,0,0,-2.3545,-2.3549,-2.38,-2.3802,-2.3804,-2.3956,-2.3958,-2.396,-2.4014,-2.4014,-2.4013,-2.4012,-2.4166,-2.4172,-2.4178,0,0,0,0,0,0,0,0,0,0,0,0,0,-2.3673,-2.355,-2.3799,-2.3849,-2.3855,-2.3955,-2.3958,-2.3961,-2.4014,-2.4014,-2.4013,-2.4012,-2.4165,-2.4171,-2.4178,-2.4239,0,0,-2.42,-2.4203,0,0,0,0,0,0,0,0,-2.3666,-2.3683,-2.384,-2.3846,-2.3853,-2.3965,-2.3925,-2.4054,-2.4015,-2.3954,-2.4012,-2.4011,-2.4101,-2.4113,-2.4144,-2.4246,-2.4253,-2.42,-2.4205,-2.4208,-2.421,0,0,0,0,0,0,0,-2.3657,-2.3676,-2.3861,-2.3842,-2.385,-2.3862,-2.388,-2.395,-2.403,-2.3959,-2.3963,-2.3981,-2.4104,-2.4137,-2.4148,-2.4255,-2.42,-2.4206,-2.4211,-2.4214,-2.4416,-2.4417,0,0,0,0,0,0,-2.364,-2.3668,-2.3856,-2.3866,-2.3756,-2.3868,-2.3887,-2.393,-2.403,-2.4044,-2.3982,-2.3983,-2.4126,-2.414,-2.4154,-2.4232,-2.4208,-2.4214,-2.4218,-2.4415,-2.4416,-2.4417,0,0,0,0,0,0,-2.3635,-2.3657,-2.385,-2.3769,-2.3794,-2.3873,-2.392,-2.3933,-2.3966,-2.4047,-2.4061,-2.4001,-2.4125,-2.4144,-2.4218,-2.4238,-2.4217,-2.4224,-2.4413,-2.4415,-2.4417,-2.4388,0,0,0,0,0,0,-2.3627,-2.3654,-2.3679,-2.3769,-2.3798,-2.3913,-2.3922,-2.3937,-2.3979,-2.3982,-2.4069,-2.4082,-2.4126,-2.4207,-2.4225,-2.4247,-2.4229,-2.4412,-2.4414,-2.4416,-2.4387,-2.4388,-2.4389,0,0,0,0,0,-2.3618,-2.3663,-2.368,-2.3702,-2.3831,-2.3914,-2.393,-2.3981,-2.398,-2.4005,-2.4057,-2.4079,-2.4233,-2.4214,-2.4235,-2.4259,-2.4411,-2.4414,-2.4416,-2.4387,-2.4388,-2.4389,0,0,0,0,0,0,-2.3572,-2.3676,-2.3695,-2.3772,-2.3834,-2.3923,-2.3956,-2.3981,-2.4043,-2.4044,-2.4103,-2.4122,-2.4191,-2.4233,-2.421,-2.4324,-2.4323,-2.433,-2.4294,-2.4296,-2.4297,-2.4285,-2.4235,0,0,0,0,0,-2.3571,-2.363,-2.3718,-2.3776,-2.3807,-2.3876,-2.3914,-2.3948,-2.4014,-2.404,-2.4097,-2.4159,-2.4222,-2.4261,-2.4323,-2.4394,-2.4413,-2.4421,-2.4422,-2.4422,-2.4427,-2.4468,-2.4472,-2.4426,-2.4426,-2.4426,0,0,-2.3568,-2.3633,-2.3666,-2.3769,-2.3821,-2.388,-2.3897,-2.3959,-2.4004,-2.4049,-2.4123,-2.4167,-2.424,-2.4313,-2.4348,-2.435,-2.4445,-2.4426,-2.4425,-2.443,-2.4471,-2.4476,-2.4479,-2.4428,-2.4428,-2.4427,0,0,-2.3595,-2.365,-2.3705,-2.3758,-2.3837,-2.3883,-2.3896,-2.3982,-2.4014,-2.4089,-2.4125,-2.4178,-2.4284,-2.4335,-2.4374,-2.4422,-2.4444,-2.444,-2.4444,-2.4484,-2.4487,-2.4491,-2.4507,-2.4513,-2.4445,-2.4445,-2.4445,0,-2.3581,-2.3674,-2.373,-2.3791,-2.3834,-2.388,-2.3936,-2.3984,-2.4078,-2.4107,-2.4108,-2.4243,-2.4296,-2.4381,-2.4393,-2.4424,-2.444,-2.443,-2.4483,-2.4487,-2.4491,-2.4507,-2.4513,-2.4444,-2.4444,-2.4444,-2.4444,0,-2.3654,-2.3717,-2.3752,-2.3844,-2.3892,-2.395,-2.4014,-2.4055,-2.4086,-2.4131,-2.4207,-2.4272,-2.4348,-2.4371,-2.4401,-2.4461,-2.446,-2.4471,-2.4472,-2.4493,-2.451,-2.4516,-2.4442,-2.4443,-2.4443,-2.4443,0,0,-2.3654,-2.3778,-2.379,-2.3832,-2.3924,-2.3973,-2.4033,-2.411,-2.4144,-2.4208,-2.4259,-2.4349,-2.436,-2.4405,-2.4441,-2.4475,-2.4509,-2.4482,-2.4485,-2.4485,-2.4579,-2.4569,-2.4576,-2.4525,-2.4526,-2.4527,-2.4573,0,-2.3692,-2.3802,-2.3855,-2.3942,-2.4001,-2.4046,-2.4098,-2.4159,-2.4204,-2.4259,-2.4308,-2.437,-2.4381,-2.4408,-2.4445,-2.4497,-2.4528,-2.4494,-2.4572,-2.4574,-2.4551,-2.4585,-2.4575,-2.4614,-2.458,-2.4581,-2.4582,0,-2.375,-2.3816,-2.3909,-2.3995,-2.4022,-2.4068,-2.4142,-2.4195,-2.4266,-2.4296,-2.4347,-2.4382,-2.4446,-2.4443,-2.4531,-2.4507,-2.4542,-2.4572,-2.4575,-2.4583,-2.4578,-2.4593,-2.4628,-2.4634,-2.4592,-2.4591,-2.4591,0,-2.374,-2.3852,-2.3923,-2.3958,-2.406,-2.4091,-2.4134,-2.4204,-2.4247,-2.4312,-2.434,-2.441,-2.4449,-2.4502,-2.4555,-2.4548,-2.4639,-2.464,-2.4664,-2.4663,-2.468,-2.4678,-2.472,-2.4704,-2.4704,-2.4704,-2.4704,0,-2.3777,-2.3832,-2.392,-2.3963,-2.4026,-2.4086,-2.4146,-2.4193,-2.4255,-2.4307,-2.435,-2.4398,-2.4466,-2.4522,-2.4564,-2.4631,-2.4648,-2.4673,-2.4683,-2.4669,-2.4665,-2.4691,-2.469,-2.4705,-2.4705,-2.4705,-2.4704,0,-2.3776,-2.3837,-2.3917,-2.4007,-2.4031,-2.4074,-2.4151,-2.4194,-2.4241,-2.4307,-2.4326,-2.4399,-2.4468,-2.4527,-2.4616,-2.4645,-2.4713,-2.4726,-2.469,-2.4695,-2.4716,-2.4713,-2.4776,-2.4787,-2.4763,-2.4763,-2.4764,0,-2.3794,-2.3838,-2.3934,-2.3973,-2.4016,-2.4078,-2.4123,-2.4184,-2.4228,-2.4312,-2.4345,-2.4417,-2.4478,-2.4585,-2.4646,-2.4715,-2.4729,-2.4747,-2.474,-2.4724,-2.4729,-2.4725,-2.473,-2.4746,-2.4746,-2.4746,-2.4746,0,-2.3821,-2.3849,-2.3912,-2.3987,-2.4039,-2.41,-2.4161,-2.4191,-2.4263,-2.431,-2.4382,-2.4429,-2.4522,-2.4593,-2.4669,-2.4713,-2.4741,-2.4748,-2.4758,-2.4743,-2.472,-2.4732,-2.469,-2.4746,-2.4746,-2.4746,-2.4746,-2.4746,-2.383,-2.3871,-2.3945,-2.4014,-2.4068,-2.4125,-2.417,-2.4224,-2.4285,-2.4367,-2.4399,-2.4472,-2.4542,-2.4647,-2.4691,-2.4749,-2.4753,-2.4766,-2.4769,-2.4771,-2.4769,-2.4712,-2.4763,-2.4763,-2.4763,-2.4763,-2.4763,0,-2.3858,-2.3909,-2.3972,-2.4058,-2.4112,-2.4137,-2.4207,-2.425,-2.4314,-2.4378,-2.4437,-2.452,-2.4589,-2.4656,-2.4729,-2.4762,-2.4777,-2.4778,-2.4776,-2.4786,-2.4761,-2.4746,-2.4765,-2.4765,-2.4765,-2.4765,-2.4765,-2.4765,-2.3879,-2.395,-2.3988,-2.4086,-2.4136,-2.4209,-2.4247,-2.43,-2.4351,-2.4441,-2.45,-2.4544,-2.4609,-2.4687,-2.4751,-2.4769,-2.4793,-2.4792,-2.4813,-2.4788,-2.4787,-2.4786,-2.4772,-2.4797,-2.4797,-2.4833,-2.4833,-2.4833]}]]